Tracking 30696 objects as of 16-Jun-2025
HD Live streaming from Space Station
objects crossing your sky now

COSMOS 970 DEB

Track COSMOS 970 DEB now!
10-day predictions


NORAD ID: 13504
Int'l Code: 1977-121BB
Perigee: 829.1 km
Apogee: 1,131.2 km
Inclination: 66.1 °
Period: 104.5 minutes
Semi major axis: 7351 km
RCS: 0.036 m2 (small)
Launch date: December 21, 1977
Source: Commonwealth of Independent States (former USSR) (CIS)
Launch site: TYURATAM MISSILE AND SPACE COMPLEX (TTMTR)

Note: This is SATELLITE DEBRIS
Your satellite tracking list
Your tracking list is empty




NASA's NSSDC Master Catalog

Two Line Element Set (TLE):
1 13504U 77121BB  25165.64376554  .00000002  00000-0  70014-4 0  9998
2 13504  66.1173 285.3032 0205463 331.0278 135.8996 13.77441247375440
Source of the keplerian elements: AFSPC